Time,TemperatureF,DewpointF,PressureIn,WindDirection,WindDirectionDegrees,WindSpeedMPH,WindSpeedGustMPH,Humidity,HourlyPrecipIn,Conditions,Clouds,dailyrainin,SoftwareType,DateUTC
2013-03-14 00:07:00,60.6,49.0,30.20,NW,309,6.0,9.0,66,0.00,,,0.00,weatherlink.com 1.10,2013-03-14 04:07:00,
2013-03-14 00:22:00,60.8,50.0,30.20,WNW,295,8.0,9.0,68,0.00,,,0.00,weatherlink.com 1.10,2013-03-14 04:22:00,
2013-03-14 00:37:00,60.7,50.0,30.19,NNW,330,4.0,10.0,69,0.00,,,0.00,weatherlink.com 1.10,2013-03-14 04:37:00,
2013-03-14 00:52:00,60.4,51.0,30.19,NW,324,2.0,9.0,71,0.00,,,0.00,weatherlink.com 1.10,2013-03-14 04:52:00,
2013-03-14 01:07:00,60.3,52.0,30.19,NW,308,2.0,6.0,73,0.00,,,0.00,weatherlink.com 1.10,2013-03-14 05:07:00,
2013-03-14 01:22:00,60.2,52.0,30.19,SSW,213,1.0,6.0,73,0.00,,,0.00,weatherlink.com 1.10,2013-03-14 05:22:00,
2013-03-14 01:37:00,60.1,51.0,30.18,North,349,2.0,5.0,73,0.00,,,0.00,weatherlink.com 1.10,2013-03-14 05:37:00,
2013-03-14 01:52:00,60.3,52.0,30.18,NW,314,0.0,5.0,75,0.00,,,0.00,weatherlink.com 1.10,2013-03-14 05:52:00,
2013-03-14 02:07:00,60.2,53.0,30.18,NE,47,3.0,5.0,76,0.00,,,0.00,weatherlink.com 1.10,2013-03-14 06:07:00,
2013-03-14 02:22:00,60.4,53.0,30.18,West,278,1.0,5.0,76,0.00,,,0.00,weatherlink.com 1.10,2013-03-14 06:22:00,
2013-03-14 02:37:00,60.5,53.0,30.18,NW,312,2.0,8.0,75,0.00,,,0.00,weatherlink.com 1.10,2013-03-14 06:37:00,
2013-03-14 02:52:00,60.8,51.0,30.18,NNE,20,3.0,11.0,70,0.00,,,0.00,weatherlink.com 1.10,2013-03-14 06:52:00,
2013-03-14 03:07:00,60.8,50.0,30.18,NW,311,4.0,11.0,68,0.00,,,0.00,weatherlink.com 1.10,2013-03-14 07:07:00,
2013-03-14 03:22:00,60.7,49.0,30.18,ENE,63,2.0,10.0,66,0.00,,,0.00,weatherlink.com 1.10,2013-03-14 07:22:00,
2013-03-14 03:37:00,60.4,49.0,30.18,NNW,344,3.0,8.0,67,0.00,,,0.00,weatherlink.com 1.10,2013-03-14 07:37:00,
2013-03-14 03:52:00,60.1,46.0,30.18,NNE,26,1.0,8.0,61,0.00,,,0.00,weatherlink.com 1.10,2013-03-14 07:52:00,
2013-03-14 04:07:00,59.8,48.0,30.18,NNW,330,1.0,10.0,65,0.00,,,0.00,weatherlink.com 1.10,2013-03-14 08:07:00,
2013-03-14 04:22:00,58.9,47.0,30.18,WNW,297,1.0,4.0,65,0.00,,,0.00,weatherlink.com 1.10,2013-03-14 08:22:00,
2013-03-14 04:37:00,58.2,45.0,30.18,NNE,28,2.0,5.0,61,0.00,,,0.00,weatherlink.com 1.10,2013-03-14 08:37:00,
2013-03-14 04:52:00,57.8,43.0,30.19,NNW,347,1.0,8.0,58,0.00,,,0.00,weatherlink.com 1.10,2013-03-14 08:52:00,
2013-03-14 05:07:00,57.3,42.0,30.19,East,84,1.0,6.0,58,0.00,,,0.00,weatherlink.com 1.10,2013-03-14 09:07:00,
2013-03-14 05:22:00,57.0,40.0,30.19,NNW,334,2.0,7.0,54,0.00,,,0.00,weatherlink.com 1.10,2013-03-14 09:22:00,
2013-03-14 05:37:00,56.8,40.0,30.20,NNW,347,1.0,5.0,54,0.00,,,0.00,weatherlink.com 1.10,2013-03-14 09:37:00,
2013-03-14 05:52:00,56.7,40.0,30.20,WNW,286,0.0,7.0,53,0.00,,,0.00,weatherlink.com 1.10,2013-03-14 09:52:00,
2013-03-14 06:07:00,56.3,39.0,30.21,North,6,1.0,8.0,53,0.00,,,0.00,weatherlink.com 1.10,2013-03-14 10:07:00,
2013-03-14 06:22:00,55.8,40.0,30.22,ESE,105,1.0,5.0,55,0.00,,,0.00,weatherlink.com 1.10,2013-03-14 10:22:00,
2013-03-14 06:38:00,55.8,40.0,30.22,NNE,20,1.0,7.0,55,0.00,,,0.00,weatherlink.com 1.10,2013-03-14 10:38:00,
2013-03-14 06:53:00,55.3,40.0,30.23,NNE,13,1.0,4.0,57,0.00,,,0.00,weatherlink.com 1.10,2013-03-14 10:53:00,
2013-03-14 07:08:00,54.7,40.0,30.24,NNW,328,3.0,6.0,58,0.00,,,0.00,weatherlink.com 1.10,2013-03-14 11:08:00,
2013-03-14 07:23:00,54.6,39.0,30.25,NNW,330,1.0,7.0,57,0.00,,,0.00,weatherlink.com 1.10,2013-03-14 11:23:00,
2013-03-14 07:38:00,54.0,37.0,30.25,NNW,338,0.0,2.0,54,0.00,,,0.00,weatherlink.com 1.10,2013-03-14 11:38:00,
2013-03-14 07:53:00,53.9,35.0,30.26,North,6,2.0,5.0,49,0.00,,,0.00,weatherlink.com 1.10,2013-03-14 11:53:00,
2013-03-14 08:08:00,53.6,34.0,30.26,NNW,348,1.0,5.0,48,0.00,,,0.00,weatherlink.com 1.10,2013-03-14 12:08:00,
2013-03-14 08:23:00,53.5,34.0,30.27,West,262,1.0,4.0,47,0.00,,,0.00,weatherlink.com 1.10,2013-03-14 12:23:00,
2013-03-14 08:38:00,54.0,34.0,30.27,North,4,2.0,5.0,47,0.00,,,0.00,weatherlink.com 1.10,2013-03-14 12:38:00,
2013-03-14 08:53:00,54.6,35.0,30.27,NNW,346,0.0,5.0,48,0.00,,,0.00,weatherlink.com 1.10,2013-03-14 12:53:00,
2013-03-14 09:09:00,55.6,34.0,30.27,NNW,333,1.0,4.0,45,0.00,,,0.00,weatherlink.com 1.10,2013-03-14 13:09:00,
2013-03-14 09:23:00,56.8,35.0,30.28,NNE,31,3.0,5.0,44,0.00,,,0.00,weatherlink.com 1.10,2013-03-14 13:23:00,
2013-03-14 09:39:00,57.2,35.0,30.28,ENE,75,1.0,7.0,43,0.00,,,0.00,weatherlink.com 1.10,2013-03-14 13:39:00,
2013-03-14 09:53:00,58.0,37.0,30.28,SSE,160,1.0,5.0,45,0.00,,,0.00,weatherlink.com 1.10,2013-03-14 13:53:00,
2013-03-14 10:08:00,58.7,36.0,30.28,WNW,295,1.0,8.0,43,0.00,,,0.00,weatherlink.com 1.10,2013-03-14 14:08:00,
2013-03-14 10:23:00,58.8,36.0,30.27,NNW,333,3.0,7.0,42,0.00,,,0.00,weatherlink.com 1.10,2013-03-14 14:23:00,
2013-03-14 10:38:00,59.3,38.0,30.28,NE,44,2.0,7.0,45,0.00,,,0.00,weatherlink.com 1.10,2013-03-14 14:38:00,
2013-03-14 10:53:00,59.5,36.0,30.27,ENE,68,2.0,9.0,42,0.00,,,0.00,weatherlink.com 1.10,2013-03-14 14:53:00,
2013-03-14 11:08:00,59.7,37.0,30.27,NW,309,1.0,5.0,43,0.00,,,0.00,weatherlink.com 1.10,2013-03-14 15:08:00,
2013-03-14 11:23:00,60.3,35.0,30.27,NW,311,2.0,6.0,39,0.00,,,0.00,weatherlink.com 1.10,2013-03-14 15:23:00,
2013-03-14 11:38:00,61.3,37.0,30.27,NNE,13,1.0,5.0,41,0.00,,,0.00,weatherlink.com 1.10,2013-03-14 15:38:00,
2013-03-14 11:53:00,61.3,36.0,30.26,SW,235,1.0,5.0,39,0.00,,,0.00,weatherlink.com 1.10,2013-03-14 15:53:00,
2013-03-14 12:08:00,62.1,37.0,30.26,NE,51,1.0,4.0,39,0.00,,,0.00,weatherlink.com 1.10,2013-03-14 16:08:00,
2013-03-14 12:23:00,62.6,36.0,30.26,NNE,26,1.0,4.0,38,0.00,,,0.00,weatherlink.com 1.10,2013-03-14 16:23:00,
2013-03-14 12:38:00,62.6,36.0,30.26,ENE,58,1.0,7.0,38,0.00,,,0.00,weatherlink.com 1.10,2013-03-14 16:38:00,
2013-03-14 12:53:00,63.2,36.0,30.25,NNE,32,3.0,7.0,37,0.00,,,0.00,weatherlink.com 1.10,2013-03-14 16:53:00,
2013-03-14 13:08:00,62.5,34.0,30.25,North,354,5.0,8.0,35,0.00,,,0.00,weatherlink.com 1.10,2013-03-14 17:08:00,
2013-03-14 13:23:00,62.7,35.0,30.25,NW,309,3.0,8.0,36,0.00,,,0.00,weatherlink.com 1.10,2013-03-14 17:23:00,
2013-03-14 13:39:00,63.6,37.0,30.24,ENE,72,2.0,8.0,37,0.00,,,0.00,weatherlink.com 1.10,2013-03-14 17:39:00,
2013-03-14 13:54:00,64.1,40.0,30.23,NNW,338,1.0,9.0,41,0.00,,,0.00,weatherlink.com 1.10,2013-03-14 17:54:00,
2013-03-14 14:09:00,63.3,40.0,30.23,NNW,333,1.0,12.0,43,0.00,,,0.00,weatherlink.com 1.10,2013-03-14 18:09:00,
2013-03-14 14:24:00,63.1,40.0,30.23,NNE,24,3.0,8.0,43,0.00,,,0.00,weatherlink.com 1.10,2013-03-14 18:24:00,
2013-03-14 14:40:00,62.6,42.0,30.22,NNE,33,2.0,10.0,48,0.00,,,0.00,weatherlink.com 1.10,2013-03-14 18:40:00,
2013-03-14 14:54:00,62.2,42.0,30.22,NE,36,3.0,9.0,47,0.00,,,0.00,weatherlink.com 1.10,2013-03-14 18:54:00,
2013-03-14 15:09:00,61.4,41.0,30.22,SE,127,2.0,14.0,48,0.00,,,0.00,weatherlink.com 1.10,2013-03-14 19:09:00,
2013-03-14 15:24:00,61.6,43.0,30.21,NW,321,4.0,11.0,50,0.00,,,0.00,weatherlink.com 1.10,2013-03-14 19:24:00,
2013-03-14 15:39:00,61.5,42.0,30.21,WNW,298,2.0,10.0,49,0.00,,,0.00,weatherlink.com 1.10,2013-03-14 19:39:00,
2013-03-14 15:54:00,61.5,44.0,30.20,North,3,2.0,9.0,53,0.00,,,0.00,weatherlink.com 1.10,2013-03-14 19:54:00,
2013-03-14 16:09:00,60.6,43.0,30.20,NNW,347,3.0,13.0,52,0.00,,,0.00,weatherlink.com 1.10,2013-03-14 20:09:00,
2013-03-14 16:24:00,61.3,43.0,30.20,North,11,5.0,11.0,52,0.00,,,0.00,weatherlink.com 1.10,2013-03-14 20:24:00,
2013-03-14 16:39:00,61.4,43.0,30.19,NNE,26,7.0,10.0,52,0.00,,,0.00,weatherlink.com 1.10,2013-03-14 20:39:00,
2013-03-14 16:54:00,61.4,43.0,30.19,NNW,345,7.0,11.0,51,0.00,,,0.00,weatherlink.com 1.10,2013-03-14 20:54:00,
2013-03-14 17:09:00,61.2,43.0,30.19,NNE,29,2.0,9.0,52,0.00,,,0.00,weatherlink.com 1.10,2013-03-14 21:09:00,
2013-03-14 17:24:00,61.6,44.0,30.19,NW,316,3.0,9.0,52,0.00,,,0.00,weatherlink.com 1.10,2013-03-14 21:24:00,
2013-03-14 17:39:00,60.6,43.0,30.19,NW,319,9.0,9.0,53,0.00,,,0.00,weatherlink.com 1.10,2013-03-14 21:39:00,
2013-03-14 17:55:00,60.9,44.0,30.19,NNE,29,3.0,11.0,54,0.00,,,0.00,weatherlink.com 1.10,2013-03-14 21:55:00,
2013-03-14 18:09:00,60.1,44.0,30.19,NW,310,2.0,10.0,55,0.00,,,0.00,weatherlink.com 1.10,2013-03-14 22:09:00,
2013-03-14 18:24:00,59.8,45.0,30.19,NW,316,1.0,9.0,58,0.00,,,0.00,weatherlink.com 1.10,2013-03-14 22:24:00,
2013-03-14 18:39:00,59.6,44.0,30.20,North,7,1.0,8.0,57,0.00,,,0.00,weatherlink.com 1.10,2013-03-14 22:39:00,
2013-03-14 18:54:00,59.1,45.0,30.20,NNE,22,2.0,9.0,59,0.00,,,0.00,weatherlink.com 1.10,2013-03-14 22:54:00,
2013-03-14 22:31:00,55.2,46.0,30.24,ENE,73,4.0,7.0,71,0.00,,,0.00,weatherlink.com 1.10,2013-03-15 02:31:00,
2013-03-14 22:39:00,55.3,46.0,30.24,North,349,0.0,7.0,71,0.00,,,0.00,weatherlink.com 1.10,2013-03-15 02:39:00,
2013-03-14 22:54:00,55.1,46.0,30.25,NW,314,0.0,5.0,71,0.00,,,0.00,weatherlink.com 1.10,2013-03-15 02:54:00,
2013-03-14 23:09:00,55.0,46.0,30.26,NW,316,1.0,3.0,73,0.00,,,0.00,weatherlink.com 1.10,2013-03-15 03:09:00,
2013-03-14 23:24:00,54.3,47.0,30.26,NE,52,1.0,2.0,75,0.00,,,0.00,weatherlink.com 1.10,2013-03-15 03:24:00,
2013-03-14 23:39:00,53.9,47.0,30.26,NNE,20,0.0,3.0,77,0.00,,,0.00,weatherlink.com 1.10,2013-03-15 03:39:00,
2013-03-14 23:54:00,53.5,46.0,30.26,NE,45,0.0,1.0,77,0.00,,,0.00,weatherlink.com 1.10,2013-03-15 03:54:00,